Terminal Aerodrome Forecast
Issued by NWS

Home | Current Version | Previous Version | Text Only | Print | Product List | Glossary On
Versions: 1 2 3 4 5 6 7 8 9 10 11 12 13 14 15 16 17 18 19 20 21 22 23 24
000
FTUS45 KLKN 262320
TAFWMC
TAF
KWMC 262320Z 2700/2724 08007KT P6SM FEW150 SCT250
     FM270600 VRB04KT P6SM SCT150 BKN200
     FM271200 VRB04KT P6SM SCT080 BKN150
     FM271800 20006KT P6SM VCSH SCT040 BKN060=

USA.gov is the U.S. government's official web portal to all federal, state and local government web resources and services.